| time (UTC) | temp F | wind direction | speed MPH | gust MPH | rain 1hr in | rain 24hr in | rain mn in | humidity % | barometer mb |
| 20260505035005 | 63 | 331 | 0.0 | 3.0 | 0.00 | 0.00 | 0.00 | 56 | 1002.7 |
| 20260505034004 | 63 | 244 | 0.0 | 3.0 | 0.00 | 0.00 | 0.00 | 57 | 1002.7 |
| 20260505033006 | 62 | 203 | 1.0 | 1.0 | 0.00 | 0.00 | 0.00 | 58 | 1002.7 |
| 20260505032005 | 63 | 247 | 1.0 | 2.0 | 0.00 | 0.00 | 0.00 | 58 | 1002.7 |
| 20260505031005 | 62 | 313 | 1.0 | 2.0 | 0.00 | 0.00 | 0.00 | 60 | 1002.7 |
| 20260505025004 | 62 | 244 | 2.0 | 2.0 | 0.00 | 0.00 | 0.00 | 62 | 1002.7 |
| 20260505024004 | 63 | 39 | 0.0 | 0.0 | 0.00 | 0.00 | 0.00 | 60 | 1002.7 |
| 20260505023004 | 64 | 291 | 0.0 | 3.0 | 0.00 | 0.00 | 0.00 | 58 | 1002.7 |
| 20260505022005 | 65 | 258 | 0.0 | 3.0 | 0.00 | 0.00 | 0.00 | 56 | 1002.7 |
| 20260505021005 | 65 | 226 | 2.0 | 3.0 | 0.00 | 0.00 | 0.00 | 57 | 1002.7 |
| 20260505020006 | 64 | 212 | 1.0 | 2.0 | 0.00 | 0.00 | 0.00 | 58 | 1002.7 |
| 20260505015008 | 64 | 177 | 0.0 | 0.0 | 0.00 | 0.00 | 0.00 | 61 | 1002.4 |
| 20260505012007 | 66 | 17 | 0.0 | 0.0 | 0.00 | 0.00 | 0.00 | 57 | 1002.0 |
| 20260505011008 | 67 | 358 | 0.0 | 0.0 | 0.00 | 0.00 | 0.00 | 55 | 1002.0 |
| 20260505010007 | 68 | 32 | 0.0 | 0.0 | 0.00 | 0.00 | 0.00 | 53 | 1002.0 |
| 20260505005005 | 69 | 358 | 0.0 | 0.0 | 0.00 | 0.00 | 0.00 | 50 | 1002.0 |
| 20260505004005 | 70 | 322 | 0.0 | 0.0 | 0.00 | 0.00 | 0.00 | 48 | 1001.7 |
| 20260505002004 | 72 | 189 | 0.0 | 1.0 | 0.00 | 0.00 | 0.00 | 46 | 1001.7 |
| 20260504235005 | 75 | 328 | 1.0 | 3.0 | 0.00 | 0.00 | 0.00 | 44 | 1001.4 |
| 20260504234011 | 75 | 306 | 1.0 | 3.0 | 0.00 | 0.00 | 0.00 | 43 | 1001.4 |
| 20260504232005 | 76 | 339 | 3.0 | 7.0 | 0.00 | 0.00 | 0.00 | 42 | 1001.4 |
| 20260504231015 | 77 | 326 | 3.0 | 7.0 | 0.00 | 0.00 | 0.00 | 40 | 1001.4 |
| 20260504224005 | 78 | 26 | 5.0 | 7.0 | 0.00 | 0.00 | 0.00 | 39 | 1001.4 |
| 20260504223004 | 77 | 317 | 2.0 | 7.0 | 0.00 | 0.00 | 0.00 | 40 | 1001.4 |
| 20260504222004 | 78 | 351 | 7.0 | 8.0 | 0.00 | 0.00 | 0.00 | 39 | 1001.7 |
| 20260504221008 | 78 | 6 | 3.0 | 6.0 | 0.00 | 0.00 | 0.00 | 38 | 1001.4 |
| 20260504220004 | 79 | 6 | 3.0 | 9.0 | 0.00 | 0.00 | 0.00 | 38 | 1001.7 |
| 20260504215004 | 80 | 331 | 5.0 | 12.0 | 0.00 | 0.00 | 0.00 | 36 | 1001.7 |
| 20260504214011 | 80 | 301 | 6.0 | 12.0 | 0.00 | 0.00 | 0.00 | 37 | 1001.7 |
| 20260504213005 | 80 | 303 | 6.0 | 12.0 | 0.00 | 0.00 | 0.00 | 36 | 1001.7 |
| 20260504212004 | 80 | 276 | 2.0 | 7.0 | 0.00 | 0.00 | 0.00 | 38 | 1001.4 |
| 20260504211004 | 80 | 321 | 1.0 | 8.0 | 0.00 | 0.00 | 0.00 | 37 | 1001.4 |
| 20260504210005 | 80 | 3 | 5.0 | 8.0 | 0.00 | 0.00 | 0.00 | 35 | 1001.4 |
| 20260504205009 | 80 | 332 | 5.0 | 8.0 | 0.00 | 0.00 | 0.00 | 35 | 1001.6 |
| 20260504204006 | 79 | 44 | 6.0 | 8.0 | 0.00 | 0.00 | 0.00 | 35 | 1001.4 |
| 20260504203004 | 79 | 279 | 3.0 | 7.0 | 0.00 | 0.00 | 0.00 | 36 | 1001.7 |
| 20260504202007 | 80 | 336 | 3.0 | 6.0 | 0.00 | 0.00 | 0.00 | 36 | 1001.7 |
| 20260504201007 | 80 | 346 | 3.0 | 9.0 | 0.00 | 0.00 | 0.00 | 34 | 1002.0 |
| 20260504200005 | 79 | 3 | 3.0 | 12.0 | 0.00 | 0.00 | 0.00 | 35 | 1002.0 |
| 20260504195004 | 80 | 30 | 5.0 | 12.0 | 0.00 | 0.00 | 0.00 | 35 | 1002.4 |
| 20260504192008 | 80 | 344 | 3.0 | 12.0 | 0.00 | 0.00 | 0.00 | 33 | 1002.7 |
| 20260504191005 | 80 | 318 | 1.0 | 12.0 | 0.00 | 0.00 | 0.00 | 34 | 1003.0 |
| 20260504190007 | 78 | 314 | 3.0 | 13.0 | 0.00 | 0.00 | 0.00 | 34 | 1003.0 |
| 20260504185005 | 79 | 272 | 5.0 | 13.0 | 0.00 | 0.00 | 0.00 | 32 | 1003.0 |
| 20260504184007 | 79 | 341 | 4.0 | 12.0 | 0.00 | 0.00 | 0.00 | 33 | 1003.0 |
| 20260504183010 | 80 | 358 | 4.0 | 10.0 | 0.00 | 0.00 | 0.00 | 32 | 1003.0 |
| 20260504182023 | 79 | 356 | 10.0 | 10.0 | 0.00 | 0.00 | 0.00 | 32 | 1003.0 |
| 20260504181005 | 78 | 226 | 3.0 | 12.0 | 0.00 | 0.00 | 0.00 | 32 | 1003.4 |
| 20260504180005 | 78 | 10 | 4.0 | 12.0 | 0.00 | 0.00 | 0.00 | 31 | 1003.4 |
| 20260504175007 | 78 | 334 | 6.0 | 9.0 | 0.00 | 0.00 | 0.00 | 32 | 1003.4 |
| 20260504174007 | 77 | 340 | 8.0 | 12.0 | 0.00 | 0.00 | 0.00 | 33 | 1003.4 |
| 20260504173005 | 76 | 241 | 3.0 | 12.0 | 0.00 | 0.00 | 0.00 | 35 | 1003.7 |
| 20260504172005 | 77 | 280 | 3.0 | 13.0 | 0.00 | 0.00 | 0.00 | 32 | 1004.1 |
| 20260504171005 | 76 | 299 | 8.0 | 13.0 | 0.00 | 0.00 | 0.00 | 33 | 1004.1 |
| 20260504141004 | 67 | 190 | 1.0 | 3.0 | 0.00 | 0.00 | 0.00 | 53 | 1005.8 |
| 20260504082005 | 39 | 338 | 0.0 | 0.0 | 0.00 | 0.00 | 0.00 | 94 | 1006.1 |
| 20260504081005 | 39 | 307 | 0.0 | 0.0 | 0.00 | 0.00 | 0.00 | 93 | 1006.1 |
| 20260504050004 | 42 | 40 | 0.0 | 0.0 | 0.00 | 0.00 | 0.00 | 89 | 1006.1 |
| 20260504043006 | 42 | 8 | 0.0 | 0.0 | 0.00 | 0.00 | 0.00 | 88 | 1005.8 |
| 20260504041005 | 43 | 7 | 0.0 | 0.0 | 0.00 | 0.00 | 0.00 | 86 | 1005.8 |
| 20260504040004 | 43 | 7 | 0.0 | 0.0 | 0.00 | 0.00 | 0.00 | 86 | 1006.1 |